TimeCDT,TemperatureF,Dew PointF,Humidity,Sea Level PressureIn,VisibilityMPH,Wind Direction,Wind SpeedMPH,Gust SpeedMPH,PrecipitationIn,Events,Conditions,WindDirDegrees,DateUTC
12:53 AM,52.0,44.1,74,30.05,10.0,SE,6.9,-,N/A,,Partly Cloudy,140,2012-10-09 05:53:00
1:53 AM,52.0,45.0,77,30.03,10.0,SSE,5.8,-,N/A,,Clear,150,2012-10-09 06:53:00
2:53 AM,51.8,44.6,76,30.03,10.0,East,3.5,-,N/A,,Partly Cloudy,100,2012-10-09 07:53:00
3:53 AM,55.0,46.9,74,30.01,10.0,SSE,8.1,-,N/A,,Mostly Cloudy,150,2012-10-09 08:53:00
4:53 AM,57.0,48.0,72,29.99,10.0,SE,9.2,-,N/A,,Overcast,140,2012-10-09 09:53:00
5:53 AM,55.9,48.0,75,30.00,10.0,SSE,15.0,-,N/A,,Overcast,150,2012-10-09 10:53:00
6:53 AM,55.9,48.9,77,30.01,10.0,SSE,12.7,-,N/A,,Overcast,150,2012-10-09 11:53:00
7:41 AM,57.2,50.0,77,30.02,10.0,SSE,8.1,-,N/A,,Overcast,150,2012-10-09 12:41:00
7:53 AM,57.0,50.0,77,30.01,10.0,SSE,8.1,-,N/A,,Overcast,150,2012-10-09 12:53:00
8:22 AM,57.2,50.0,77,30.02,10.0,SSE,9.2,-,N/A,,Overcast,150,2012-10-09 13:22:00
8:53 AM,59.0,51.1,75,30.01,10.0,SSE,9.2,-,N/A,,Overcast,160,2012-10-09 13:53:00
9:53 AM,62.1,52.0,70,30.01,10.0,SSE,15.0,-,N/A,,Mostly Cloudy,160,2012-10-09 14:53:00
10:53 AM,64.9,53.1,65,30.00,10.0,SSE,16.1,-,N/A,,Overcast,160,2012-10-09 15:53:00
11:50 AM,68.0,55.4,64,29.98,10.0,South,12.7,-,N/A,,Overcast,180,2012-10-09 16:50:00
11:53 AM,69.1,55.0,61,29.97,10.0,South,16.1,21.9,N/A,,Overcast,170,2012-10-09 16:53:00
12:53 PM,71.1,55.9,59,29.94,10.0,South,19.6,33.4,N/A,,Overcast,180,2012-10-09 17:53:00
1:11 PM,71.6,57.2,60,29.93,10.0,South,19.6,-,N/A,,Mostly Cloudy,190,2012-10-09 18:11:00
1:53 PM,72.0,57.0,59,29.90,10.0,South,24.2,29.9,N/A,,Mostly Cloudy,180,2012-10-09 18:53:00
2:53 PM,77.0,59.0,54,29.86,10.0,South,21.9,28.8,N/A,,Mostly Cloudy,190,2012-10-09 19:53:00
3:53 PM,79.0,60.1,52,29.85,10.0,South,21.9,27.6,N/A,,Scattered Clouds,190,2012-10-09 20:53:00
4:53 PM,81.0,61.0,50,29.83,10.0,South,19.6,24.2,N/A,,Scattered Clouds,190,2012-10-09 21:53:00
5:53 PM,82.0,61.0,49,29.83,10.0,South,12.7,-,N/A,,Scattered Clouds,190,2012-10-09 22:53:00
6:53 PM,78.1,62.1,58,29.85,10.0,SSE,8.1,-,N/A,,Scattered Clouds,150,2012-10-09 23:53:00
7:53 PM,75.0,63.0,66,29.85,10.0,SSE,9.2,-,N/A,,Partly Cloudy,160,2012-10-10 00:53:00
8:53 PM,73.9,63.0,68,29.88,10.0,SSE,5.8,-,N/A,,Partly Cloudy,160,2012-10-10 01:53:00
9:53 PM,72.0,63.0,73,29.91,10.0,SSE,5.8,-,N/A,,Partly Cloudy,160,2012-10-10 02:53:00
10:53 PM,69.1,62.1,78,29.94,10.0,Calm,Calm,-,N/A,,Clear,0,2012-10-10 03:53:00
11:53 PM,66.9,62.1,84,29.94,10.0,SSE,4.6,-,N/A,,Scattered Clouds,160,2012-10-10 04:53:00